Theta_e
310 311 311 312 313 312 310 308 302 298 299 312 311 315 317 316 315 311 310 312 311 310 310 309 308 308 308 307 307 307 307 307 308 309 309 310 311 311
309 309 310 310 311 312 311 309 306 303 299 311 312 314 313 313 314 309 310 311 310 310 309 308 307 307 306 306 306 306 306 306 307 307 307 308 309 310
306 307 309 311 309 311 311 312 309 306 303 311 312 313 310 310 309 309 308 306 309 309 308 307 306 306 305 304 304 305 305 304 304 305 306 306 306 308
307 307 308 313 310 311 311 311 312 309 305 308 310 309 309 309 307 305 307 308 308 308 307 306 305 305 305 304 303 302 303 303 302 303 304 304 305 305
309 310 309 308 307 311 310 310 312 313 307 309 308 309 308 307 304 305 305 305 308 309 307 306 305 304 303 303 303 302 301 301 301 301 301 302 302 303
310 310 310 308 311 308 310 310 312 309 308 309 308 307 306 305 305 301 301 304 304 307 307 305 304 303 303 302 304 303 301 301 300 300 300 300 300 301
307 308 308 311 312 313 312 311 310 309 309 308 306 305 304 303 302 302 300 302 302 304 304 304 298 296 298 300 302 302 301 300 300 300 300 300 299 300
303 305 304 310 311 310 311 312 311 309 309 307 306 304 303 303 304 301 301 299 298 304 303 301 300 298 299 300 301 300 300 300 299 300 299 300 300 299
304 302 303 308 309 309 310 309 309 309 311 309 306 306 304 305 304 301 301 300 301 303 303 298 300 298 299 299 301 300 299 299 299 298 298 298 298 298
303 305 303 304 308 308 308 307 308 307 309 308 306 306 308 308 306 304 302 304 306 305 305 296 300 299 300 299 302 300 300 299 298 298 297 296 296 296
303 304 304 306 304 303 307 305 305 305 307 307 306 304 302 303 305 304 302 303 302 304 306 301 301 299 300 300 300 302 301 299 298 298 297 296 296 295
302 302 304 305 300 299 305 305 303 303 306 306 305 302 303 303 304 306 305 304 302 302 306 301 300 300 298 302 301 301 300 301 298 297 297 296 296 293
301 302 301 299 297 297 301 306 302 305 307 307 305 304 304 305 306 306 307 306 302 303 307 304 301 301 299 298 301 299 298 296 295 294 295 295 295 294
301 302 302 297 296 296 299 297 297 305 308 305 304 303 303 304 305 306 306 306 308 308 308 306 302 301 299 299 298 299 298 297 295 292 291 293 293 293
303 301 296 295 295 295 296 296 300 307 305 304 303 303 305 306 307 307 309 309 304 306 309 307 305 303 302 296 293 294 294 289 289 289 289 288 288 290
302 302 301 300 299 298 299 303 307 307 306 305 304 305 307 307 306 308 306 303 300 298 299 302 302 298 292 289 288 285 286 285 285 285 286 287 289 289
302 303 303 303 302 303 305 307 307 307 306 306 306 306 307 307 307 305 302 300 295 293 291 293 295 295 293 290 288 287 286 285 286 285 284 286 288 288
300 300 301 302 303 305 305 305 306 306 307 307 307 307 307 306 303 301 300 297 294 292 293 291 293 293 291 292 295 288 288 286 287 287 285 284 285 288
301 302 302 304 305 305 306 306 306 307 309 308 308 308 307 303 301 299 297 296 293 292 292 292 292 292 289 286 288 295 289 288 287 287 286 285 283 285
304 303 304 306 306 306 307 307 308 309 309 309 308 306 304 302 299 297 295 293 293 293 293 293 292 292 290 288 286 287 292 289 288 288 288 288 288 291
306 306 307 307 307 308 309 309 309 309 309 306 303 302 301 298 295 295 294 292 292 293 291 291 292 287 289 288 287 287 289 295 294 289 289 287 286 286
307 307 308 308 309 310 310 310 309 308 306 302 301 300 296 297 296 295 294 293 292 291 288 288 291 291 290 288 286 287 287 288 292 297 296 293 287 284
308 309 309 310 310 310 310 310 309 307 302 300 299 297 298 297 296 295 293 292 290 289 290 290 294 294 293 291 289 289 288 288 287 287 288 295 296 296
Wind_Speed
6 5 4 4 4 4 4 4 4 4 3 3 2 2 2 5 8 5 6 11 12 10 9 9 8 9 9 9 9 10 10 9 9 9 9 10 11 11
4 5 5 4 4 4 4 4 3 4 4 2 2 3 5 5 8 6 7 9 11 11 10 9 9 10 10 10 11 11 11 9 8 9 9 10 11 12
5 6 8 7 4 4 4 4 4 3 5 2 2 5 4 7 5 5 6 4 4 12 11 11 11 11 11 10 11 11 11 10 9 9 10 11 12 13
6 6 7 5 6 6 5 6 4 4 5 9 3 3 3 6 7 7 4 4 3 12 12 11 11 10 10 9 10 10 11 9 9 9 10 11 12 13
7 6 5 5 6 5 5 6 4 2 4 7 4 2 3 6 6 5 4 4 3 12 11 11 10 10 11 11 11 11 10 8 7 7 9 12 13 13
6 5 4 4 1 5 7 8 6 6 7 8 5 4 4 5 6 7 5 2 3 3 6 9 8 9 10 10 14 14 12 10 8 6 7 9 12 13
5 4 5 6 7 2 2 6 7 7 7 7 6 4 5 7 8 5 4 3 1 1 2 1 2 2 3 7 10 13 14 14 10 8 9 8 8 10
5 4 5 8 6 4 3 6 2 9 10 6 4 8 7 8 7 8 6 4 3 2 3 2 1 2 2 3 10 11 13 14 14 10 10 8 8 9
6 5 5 5 7 6 6 2 3 10 15 10 10 7 7 10 8 10 8 5 3 4 3 2 2 1 1 2 5 10 12 14 15 14 11 10 10 8
6 5 6 6 7 7 6 5 4 7 8 5 9 9 8 11 10 8 11 5 5 5 2 3 2 0 1 2 3 3 8 12 13 14 15 14 12 11
7 7 6 6 5 8 6 6 6 4 2 5 7 10 12 16 13 10 8 5 5 4 4 2 2 1 1 2 3 4 3 6 11 13 16 18 15 12
6 5 8 7 11 10 6 5 6 4 6 6 6 8 10 13 17 8 9 6 4 3 5 3 2 2 0 1 3 4 4 7 6 10 13 16 17 7
4 4 4 9 10 10 7 4 5 6 7 8 8 7 8 9 5 6 5 3 3 1 5 4 3 2 1 2 2 3 3 5 6 7 13 16 16 13
4 3 4 10 10 8 6 8 9 9 7 8 8 7 8 7 5 5 4 1 1 4 5 5 4 3 2 1 2 0 3 5 6 7 7 11 11 16
4 6 8 9 10 8 10 11 10 7 8 8 8 7 5 6 6 5 3 4 4 7 3 2 5 3 2 3 1 3 2 5 5 5 6 7 7 7
10 7 9 9 8 9 8 7 7 7 8 8 7 8 8 7 6 3 3 2 5 6 10 10 8 7 6 5 5 3 5 4 4 4 5 4 6 8
8 5 4 4 6 6 6 6 7 7 8 9 9 9 7 7 5 4 4 3 5 4 4 5 10 11 7 5 5 3 3 4 4 4 5 6 8 8
4 5 5 4 6 7 8 8 8 8 7 9 9 8 8 8 7 5 5 7 8 5 6 2 5 6 4 7 9 2 3 2 3 5 5 5 8 8
6 5 5 5 6 7 8 8 8 8 10 9 9 7 8 8 9 7 6 7 5 4 2 2 4 5 4 2 3 9 3 1 2 3 4 4 3 5
6 7 7 7 7 8 8 9 9 9 9 9 4 8 9 7 7 7 5 6 5 3 3 2 4 4 5 5 4 1 8 2 2 2 4 3 3 7
6 7 7 7 7 8 8 9 11 10 9 4 6 8 6 7 6 6 6 6 6 3 4 2 2 3 4 3 4 3 4 10 2 2 1 2 3 5
8 8 8 8 8 8 9 10 10 8 4 7 7 7 6 7 7 6 5 5 3 3 3 3 3 2 3 3 2 2 1 2 5 9 7 2 2 3
8 8 8 8 8 9 10 10 9 5 6 7 7 7 8 7 5 5 5 5 5 5 3 3 2 3 2 3 3 2 3 1 1 2 3 5 8 7
Wind_Direction
240 235 240 248 215 208 208 205 186 174 181 170 142 145 130 111 111 94 88 106 104 98 88 76 60 43 31 19 12 6 2 354 348 350 345 345 346 336
230 236 233 226 227 228 202 219 225 158 137 167 141 142 131 112 123 113 120 111 108 99 87 70 57 46 31 23 16 12 5 358 354 358 352 347 345 342
245 237 243 226 208 211 199 202 209 194 124 113 112 132 118 125 114 92 94 83 93 93 86 66 48 41 32 19 16 15 9 4 354 1 355 351 349 348
242 238 243 246 231 200 193 192 188 244 127 139 123 134 128 136 123 110 103 88 101 101 87 72 55 43 38 26 22 9 11 359 358 356 1 2 4 359
243 221 234 240 251 221 185 189 184 181 144 141 127 117 99 136 125 113 114 116 141 116 100 78 61 52 40 33 31 21 11 5 357 355 11 11 8 7
238 211 215 246 285 249 193 182 158 152 125 131 115 139 143 139 141 146 149 156 132 135 108 92 67 47 40 26 23 21 15 12 9 356 357 4 10 19
226 220 222 227 226 2 203 178 148 147 135 132 138 149 146 151 170 156 154 132 105 199 110 140 60 336 14 16 14 13 16 18 8 0 356 338 339 0
214 205 233 225 218 185 276 141 186 125 136 136 154 170 175 166 159 157 152 153 162 221 140 135 102 336 1 22 23 21 16 18 20 13 1 349 344 341
222 198 208 215 204 175 197 241 220 156 160 151 164 168 165 175 154 157 159 163 153 150 127 147 217 204 19 5 13 31 27 23 25 25 17 8 6 17
225 206 198 199 198 179 182 177 191 163 159 167 160 177 169 164 165 155 151 147 108 143 164 147 205 232 263 276 309 359 38 31 27 28 28 20 11 1
217 215 210 181 168 194 167 157 147 156 82 82 136 146 140 134 138 137 152 165 141 163 203 146 184 147 274 292 288 331 2 36 19 25 28 25 15 1
204 195 197 162 180 191 157 150 134 136 134 116 93 92 124 135 145 149 149 153 145 130 193 125 136 143 79 47 16 9 7 13 24 26 23 20 16 9
186 182 190 177 164 166 150 143 153 142 150 117 113 116 121 132 124 134 144 139 145 170 157 119 157 190 127 111 67 17 13 5 16 15 14 10 17 16
169 181 174 171 162 146 134 152 137 122 128 123 124 130 135 134 134 135 147 152 325 228 174 137 139 159 108 107 127 345 12 17 27 15 7 6 11 13
137 133 128 152 157 152 150 140 137 140 131 131 132 126 115 113 117 117 117 58 53 52 77 140 116 91 74 74 73 348 48 359 10 1 358 4 4 358
118 117 108 100 107 118 122 148 146 139 136 130 124 114 117 127 137 157 117 129 87 52 42 45 75 97 77 48 81 44 19 64 331 357 348 344 14 17
113 99 93 95 114 132 141 132 123 120 129 129 127 128 127 133 143 119 121 96 97 98 62 45 66 76 63 99 78 35 50 46 9 350 1 22 22 13
103 115 125 119 128 127 123 117 118 120 127 127 125 128 140 129 122 96 112 108 115 107 113 91 105 94 52 44 59 112 35 48 1 3 9 38 30 8
137 134 121 123 112 113 118 122 122 127 129 124 127 135 123 118 122 118 110 115 94 97 90 112 121 114 102 94 297 35 116 35 22 11 8 22 10 337
125 131 127 116 117 119 121 126 126 122 125 128 119 119 125 125 120 114 103 115 117 102 84 39 104 133 140 175 155 301 12 97 75 20 357 349 295 319
119 116 116 119 119 120 123 127 128 130 134 112 110 123 121 111 104 114 115 121 114 100 127 143 228 101 100 79 62 9 336 16 105 136 229 51 12 357
117 119 119 121 124 128 126 135 128 131 117 119 129 115 101 116 123 121 123 128 132 121 112 87 46 59 61 98 118 107 39 17 17 66 63 128 140 63
110 113 119 124 130 133 139 136 139 126 122 128 114 113 122 120 115 120 114 111 114 111 103 81 41 48 61 80 97 81 100 80 36 5 7 48 77 77